When you browse on this site, cookies collect data to enhance your experience and personalize the content and advertising you see.
Visit our Privacy Policy to learn more. By continuing to use the site, you agree to this use of cookies and data.
  • In Portugal
  • List of Countries
  • For 7 days
  • Water Temperature
  • Satellite Maps
  • Weather Map
  • Weather Widgets
  • user-avatar
    Login

    Hourly Weather Choybalsan

    Today, 24 February, Sunday

    Time Temperature Precipitation Wind Pressure Humidity
    00:00 -8°C° 0 mm 3 mps 698 mmHg 51%
    01:00 -9°C° 0 mm 4 mps 699 mmHg 54%
    02:00 -10°C° 0 mm 4 mps 699 mmHg 56%
    03:00 -10°C° 0 mm 4 mps 699 mmHg 57%
    04:00 -12°C° 0 mm 5 mps 699 mmHg 58%
    05:00 -12°C° 0 mm 5 mps 699 mmHg 59%
    06:00 -12°C° 0 mm 5 mps 699 mmHg 59%
    07:00 -12°C° 0 mm 5 mps 699 mmHg 59%
    08:00 -12°C° 0 mm 5 mps 699 mmHg 60%
    09:00 -11°C° 0 mm 5 mps 699 mmHg 54%
    10:00 -10°C° 0 mm 6 mps 700 mmHg 48%
    11:00 -9°C° 0 mm 6 mps 700 mmHg 42%
    12:00 -8°C° 0 mm 6 mps 699 mmHg 40%
    13:00 -8°C° 0 mm 6 mps 699 mmHg 38%
    14:00 -6°C° 0 mm 6 mps 699 mmHg 36%
    15:00 -6°C° 0 mm 5 mps 699 mmHg 37%
    16:00 -6°C° 0 mm 5 mps 699 mmHg 38%
    17:00 -5°C° 0 mm 4 mps 698 mmHg 39%
    18:00 -7°C° 0 mm 4 mps 698 mmHg 42%
    19:00 -8°C° 0 mm 4 mps 698 mmHg 44%
    20:00 -7°C° 0 mm 3 mps 698 mmHg 47%
    21:00 -9°C° 0 mm 4 mps 698 mmHg 48%
    22:00 -9°C° 0 mm 4 mps 699 mmHg 49%
    23:00 -9°C° 0 mm 4 mps 699 mmHg 50%

    Tomorrow, 25 February, Monday

    Time Temperature Precipitation Wind Pressure Humidity
    00:00 -9°C° 0 mm 4 mps 698 mmHg 53%
    01:00 -10°C° 0 mm 4 mps 698 mmHg 55%
    02:00 -10°C° 0 mm 4 mps 698 mmHg 58%
    03:00 -10°C° 0 mm 4 mps 698 mmHg 59%
    04:00 -10°C° 0 mm 4 mps 698 mmHg 61%
    05:00 -10°C° 0 mm 4 mps 697 mmHg 63%
    06:00 -11°C° 0 mm 4 mps 697 mmHg 63%
    07:00 -11°C° 0 mm 4 mps 697 mmHg 63%
    08:00 -11°C° 0 mm 4 mps 697 mmHg 63%
    09:00 -9°C° 0 mm 4 mps 697 mmHg 56%
    10:00 -8°C° 0 mm 4 mps 698 mmHg 50%
    11:00 -5°C° 0 mm 4 mps 698 mmHg 43%
    12:00 -4°C° 0 mm 4 mps 698 mmHg 40%
    13:00 -3°C° 0 mm 4 mps 697 mmHg 37%
    14:00 -1°C° 0 mm 3 mps 697 mmHg 35%
    15:00 -1°C° 0 mm 3 mps 697 mmHg 36%
    16:00 -1°C° 0 mm 2 mps 697 mmHg 37%
    17:00 -2°C° 0 mm 2 mps 697 mmHg 39%
    18:00 -2°C° 0 mm 2 mps 697 mmHg 40%
    19:00 -3°C° 0 mm 2 mps 697 mmHg 42%
    20:00 -4°C° 0 mm 2 mps 697 mmHg 43%
    21:00 -4°C° 0 mm 2 mps 697 mmHg 43%
    22:00 -5°C° 0 mm 2 mps 697 mmHg 43%
    23:00 -5°C° 0 mm 2 mps 697 mmHg 43%

    Day after tomorrow, 26 February, Tuesday

    Time Temperature Precipitation Wind Pressure Humidity
    00:00 -5°C° 0 mm 2 mps 697 mmHg 43%
    01:00 -7°C° 0 mm 3 mps 697 mmHg 43%
    02:00 -7°C° 0 mm 3 mps 697 mmHg 43%
    03:00 -7°C° 0 mm 3 mps 697 mmHg 44%
    04:00 -8°C° 0 mm 3 mps 697 mmHg 44%
    05:00 -7°C° 0 mm 2 mps 697 mmHg 44%
    06:00 -8°C° 0 mm 3 mps 697 mmHg 44%
    07:00 -8°C° 0 mm 3 mps 697 mmHg 44%
    08:00 -8°C° 0 mm 3 mps 697 mmHg 43%
    09:00 -7°C° 0 mm 3 mps 697 mmHg 39%
    10:00 -5°C° 0 mm 3 mps 697 mmHg 35%
    11:00 -4°C° 0 mm 4 mps 697 mmHg 31%
    12:00 -3°C° 0 mm 4 mps 697 mmHg 29%
    13:00 -2°C° 0 mm 4 mps 697 mmHg 28%
    14:00 -1°C° 0 mm 4 mps 696 mmHg 26%
    15:00 0°C° 0 mm 3 mps 696 mmHg 27%
    16:00 -1°C° 0 mm 3 mps 695 mmHg 29%
    17:00 -1°C° 0 mm 2 mps 695 mmHg 31%
    18:00 -2°C° 0 mm 3 mps 695 mmHg 34%
    19:00 -4°C° 0 mm 3 mps 695 mmHg 38%
    20:00 -5°C° 0 mm 3 mps 695 mmHg 41%
    21:00 -5°C° 0 mm 3 mps 695 mmHg 47%
    22:00 -5°C° 0 mm 4 mps 694 mmHg 54%
    23:00 -7°C° 0 mm 4 mps 694 mmHg 60%

    27 February, Wednesday

    Time Temperature Precipitation Wind Pressure Humidity
    00:00 -7°C° 0 mm 4 mps 694 mmHg 62%
    01:00 -8°C° 0 mm 4 mps 694 mmHg 64%
    02:00 -8°C° 0 mm 4 mps 693 mmHg 66%
    03:00 -8°C° 0 mm 4 mps 693 mmHg 64%
    04:00 -9°C° 0 mm 4 mps 693 mmHg 63%
    05:00 -8°C° 0 mm 3 mps 693 mmHg 61%
    06:00 -8°C° 0 mm 3 mps 693 mmHg 59%
    07:00 -8°C° 0 mm 3 mps 693 mmHg 56%
    08:00 -9°C° 0 mm 3 mps 693 mmHg 54%
    09:00 -7°C° 0 mm 3 mps 694 mmHg 49%
    10:00 -5°C° 0 mm 2 mps 694 mmHg 44%
    11:00 -3°C° 0 mm 2 mps 694 mmHg 40%
    12:00 -2°C° 0 mm 2 mps 694 mmHg 39%
    13:00 -1°C° 0 mm 2 mps 694 mmHg 38%
    14:00 -1°C° 0 mm 2 mps 693 mmHg 37%
    15:00 -1°C° 0 mm 2 mps 693 mmHg 38%
    16:00 +1°C° 0 mm 1 mps 693 mmHg 39%
    17:00 +1°C° 0 mm 1 mps 693 mmHg 40%
    18:00 0°C° 0 mm 1 mps 693 mmHg 42%
    19:00 -1°C° 0 mm 1 mps 693 mmHg 44%
    20:00 -2°C° 0 mm 1 mps 693 mmHg 47%
    21:00 -2°C° 0 mm 1 mps 693 mmHg 48%
    22:00 -3°C° 0 mm 1 mps 693 mmHg 50%
    23:00 -3°C° 0 mm 1 mps 693 mmHg 51%

    28 February, Thursday

    Time Temperature Precipitation Wind Pressure Humidity
    00:00 -4°C° 0 mm 1 mps 693 mmHg 52%
    01:00 -4°C° 0 mm 1 mps 693 mmHg 54%
    02:00 -4°C° 0 mm 1 mps 693 mmHg 55%
    03:00 -6°C° 0 mm 1 mps 693 mmHg 56%
    04:00 -6°C° 0 mm 1 mps 693 mmHg 57%
    05:00 -6°C° 0 mm 1 mps 693 mmHg 58%
    06:00 -6°C° 0 mm 1 mps 693 mmHg 58%
    07:00 -6°C° 0 mm 1 mps 693 mmHg 57%
    08:00 -7°C° 0 mm 2 mps 694 mmHg 57%
    09:00 -5°C° 0 mm 2 mps 694 mmHg 51%
    10:00 -4°C° 0 mm 2 mps 694 mmHg 45%
    11:00 -3°C° 0 mm 2 mps 694 mmHg 40%
    12:00 -2°C° 0 mm 3 mps 694 mmHg 37%
    13:00 -1°C° 0 mm 3 mps 694 mmHg 34%
    14:00 0°C° 0 mm 3 mps 693 mmHg 31%
    15:00 0°C° 0 mm 3 mps 693 mmHg 32%
    16:00 +1°C° 0 mm 2 mps 693 mmHg 33%
    17:00 -1°C° 0 mm 2 mps 693 mmHg 34%
    18:00 -1°C° 0 mm 2 mps 693 mmHg 35%
    19:00 -2°C° 0 mm 3 mps 693 mmHg 36%
    20:00 -4°C° 0 mm 3 mps 693 mmHg 38%
    21:00 -4°C° 0 mm 3 mps 693 mmHg 38%
    22:00 -5°C° 0 mm 3 mps 693 mmHg 39%
    23:00 -5°C° 0 mm 3 mps 693 mmHg 39%

    1 March, Friday

    Time Temperature Precipitation Wind Pressure Humidity
    00:00 -7°C° 0 mm 4 mps 693 mmHg 40%
    01:00 -7°C° 0 mm 4 mps 693 mmHg 40%
    02:00 -7°C° 0 mm 4 mps 693 mmHg 41%
    03:00 -8°C° 0 mm 4 mps 693 mmHg 42%
    04:00 -7°C° 0 mm 3 mps 693 mmHg 42%
    05:00 -7°C° 0 mm 3 mps 693 mmHg 43%
    06:00 -7°C° 0 mm 3 mps 693 mmHg 43%
    07:00 -6°C° 0 mm 2 mps 693 mmHg 43%
    08:00 -7°C° 0 mm 2 mps 694 mmHg 43%
    09:00 -5°C° 0 mm 2 mps 694 mmHg 39%
    10:00 -2°C° 0 mm 1 mps 695 mmHg 35%
    11:00 0°C° 0 mm 1 mps 695 mmHg 31%
    12:00 +1°C° 0 mm 1 mps 695 mmHg 30%
    13:00 +1°C° 0 mm 0 mps 695 mmHg 28%
    14:00 +2°C° 0 mm 0 mps 695 mmHg 26%
    15:00 +2°C° 0 mm 1 mps 695 mmHg 27%
    16:00 +2°C° 0 mm 1 mps 695 mmHg 28%
    17:00 +2°C° 0 mm 1 mps 695 mmHg 30%
    18:00 -1°C° 0 mm 2 mps 695 mmHg 31%
    19:00 -2°C° 0 mm 2 mps 695 mmHg 33%
    20:00 -2°C° 0 mm 3 mps 695 mmHg 35%
    21:00 -4°C° 0 mm 3 mps 695 mmHg 35%
    22:00 -3°C° 0 mm 2 mps 695 mmHg 36%
    23:00 -4°C° 0 mm 2 mps 695 mmHg 36%
    Show more